#timestamp,LO_Frequency,Hit,StdDev 
1523930415.4,286047001.9,P
1523930435.3,286047001.5,N
1523930455.1,286047001.3,N
1523930456.0,286047001.3,N
1523930475.8,286047002.4,N
1523930495.7,286047000.3,N
1523930515.5,286046998.6,N
1523930535.3,286046998.8,N
1523930555.2,286046999.6,N
1523930575.0,286046998.8,N
1523930575.9,286046998.8,N
1523930595.8,286047001.2,N
1523930615.6,286047000.5,N
1523930635.4,286047001.1,N
1523930655.3,286047000.6,N
1523930675.1,286046998.4,N
1523930695.8,286047001.0,N
1523930715.7,286046998.4,N
1523930735.5,286046998.2,N
1523930755.4,286046999.6,N
1523930775.2,286046996.6,N
1523930795.0,286046996.9,N
1523930795.9,286046996.9,N
1523930815.8,286046998.9,N
1523930835.6,286046998.6,N
1523930855.4,286046998.9,N
1523930875.3,286046999.4,N
1523930895.1,286046999.5,N
1523930915.9,286046997.3,N
1523930935.7,286046996.7,N
1523930955.5,286046996.8,N
1523930975.4,286046997.8,N
1523930995.2,286046997.2,N
1523931015.0,286046997.0,N
1523931015.9,286046997.0,N
1523931035.8,286046998.7,N
1523931055.6,286047000.4,N
1523931075.5,286046998.8,N
1523931095.3,286046999.6,N
1523931115.1,286046998.8,N
1523931135.9,286046999.3,N
1523931155.7,286046997.0,N
1523931175.6,286046997.1,N
1523931195.4,286046997.1,N
1523931215.2,286046997.1,N
1523931235.1,286046996.5,N
1523931236.0,286046996.5,N
1523931255.8,286046996.8,N
1523931275.6,286046996.9,N
1523931295.5,286046997.7,N
1523931315.3,286046996.5,Y
1523931335.2,286047000.6,P
1523931355.0,286046999.9,N
1523931355.9,286046999.9,N
1523931375.7,286047000.9,N
1523931395.6,286047000.2,N
1523931415.4,286046999.8,N
1523931435.3,286046998.1,N
1523931455.1,286046998.4,N
1523931456.0,286046998.4,N
1523931475.8,286046998.9,N
1523931495.7,286046998.9,N
1523931515.5,286046999.0,N
1523931535.3,286046998.2,N
1523931555.2,286046999.2,N
1523931575.0,286046999.2,N
1523931575.9,286046999.2,N
1523931595.8,286047000.4,N
1523931615.6,286047000.3,N
1523931635.4,286047000.8,N
1523931655.3,286046996.5,Y
1523931675.1,286046999.2,P
1523931695.9,286046997.4,P
1523931715.7,286046997.4,N
1523931735.5,286046995.7,Y
1523931755.4,286046997.0,P
1523931775.2,286046997.7,P
1523931795.0,286046997.2,P
1523931795.9,286046997.2,Y
1523931815.8,286047000.9,P
1523931835.6,286046999.5,N
1523931855.5,286046999.3,N
1523931875.3,286047002.8,N
1523931895.1,286047000.5,N
1523931915.9,286047002.4,N
1523931935.7,286047002.7,N
1523931955.5,286047000.7,N
1523931975.4,286046998.1,N
1523931995.2,286046998.2,N
1523932015.1,286047001.0,N
1523932046.0,286047000.4,E
1523932055.0,286047000.0,N
1523932055.9,286047000.0,P
1523932075.8,286046999.8,P
1523932095.6,286047000.6,Y
1523932115.4,286047000.7,P
1523932135.3,286047000.9,N
1523932155.1,286047000.9,N
1523932175.8,286047001.1,N
1523932195.7,286047000.4,N
1523932215.5,286047000.6,N
1523932235.4,286047001.2,Y
1523932255.2,286046999.1,P
1523932275.0,286047000.7,N
1523932275.9,286047000.7,N
1523932295.8,286046998.2,N
1523932315.6,286047001.0,N
1523932335.5,286047000.9,N
1523932355.3,286047002.1,N
1523932375.1,286047002.4,N
1523932395.9,286047001.6,N
1523932415.7,286046999.7,N
1523932435.5,286047002.8,N
1523932455.4,286047000.3,N
1523932475.2,286047002.4,N
1523932495.1,286047002.0,N
1523932496.0,286047002.0,N
1523932515.8,286047000.1,N
1523932535.6,286046998.4,N
1523932555.5,286046998.1,N
1523932575.3,286046999.8,N
1523932595.1,286047002.4,N
1523932615.9,286047001.8,N
1523932635.7,286047002.5,N
1523932655.6,286047004.3,Y
1523932675.4,286046998.3,P
1523932695.2,286046998.4,N
1523932715.1,286046998.9,N
1523932716.0,286046998.9,N
1523932735.8,286046998.4,N
1523932755.6,286046998.9,N
1523932775.5,286046998.9,N
1523932795.3,286046996.6,Y
1523932815.2,286046999.2,P
1523932835.0,286046999.1,P
1523932835.9,286046999.1,P
1523932855.7,286047000.5,Y
1523932875.6,286047003.6,P
1523932895.4,286047006.0,N
1523932915.3,286047003.2,N
1523932935.1,286047003.2,N
1523932936.0,286047003.2,N
1523932955.8,286047005.6,N
1523932975.7,286047004.1,N
1523932995.5,286047001.8,N
1523933015.3,286047000.0,N
1523933035.2,286047002.3,N
1523933055.0,286047001.5,N
1523933055.9,286047001.5,N
1523933075.8,286047001.4,N
1523933095.6,286047004.0,N
1523933115.4,286047003.7,N
1523933135.3,286047002.0,N
1523933155.1,286047002.4,N
1523933175.9,286047001.6,N
1523933195.7,286047001.6,N
1523933215.5,286047002.2,N
1523933235.4,286047004.1,N
1523933255.2,286047004.4,N
1523933275.0,286047003.2,N
1523933275.9,286047003.2,N
1523933295.8,286047001.4,N
1523933315.6,286047002.1,N
1523933335.5,286047002.5,N
1523933355.3,286047000.5,N
1523933375.1,286047000.0,N
1523933395.9,286047000.1,N
1523933415.7,286046999.7,N
1523933435.5,286046998.8,N
1523933455.4,286047000.6,N
1523933475.2,286047002.0,N
1523933495.1,286047002.1,N
1523933496.0,286047002.1,N
1523933515.8,286047002.7,N
1523933535.6,286047002.8,N
1523933555.5,286047003.1,N
1523933575.3,286047001.4,N
1523933595.2,286047001.5,N
1523933615.9,286047003.9,N
1523933635.7,286047001.8,N
1523933655.6,286047002.0,N
1523933675.4,286047002.4,N
1523933695.2,286047003.6,N
1523933715.1,286047003.8,N
1523933716.0,286047003.8,N
1523933735.8,286047003.9,N
1523933755.7,286047003.6,N
1523933775.5,286047005.9,Y
1523933795.3,286047002.6,P
1523933815.2,286047002.8,P
1523933835.0,286047002.0,P
1523933835.9,286047002.0,Y
1523933855.8,286046998.3,P
1523933875.6,286046998.4,N
1523933895.4,286047001.2,N
1523933915.3,286047000.8,N
1523933935.1,286047000.5,N
1523933955.8,286047002.6,N
1523933975.7,286047001.3,N
1523933995.5,286047001.3,N
